Location: Unspecified
(0.0000°N, 0.0000°E)
Time: 02:48:49
(UTC+00:00)

NOSS 3-1 (A) - Pass Details

Date: 22 April 2019
Orbit: 778 x 1434 km, 63.4° (Epoch: 13 May)

Event Time Altitude Azimuth Distance (km) Brightness Sun altitude
Rises 05:06:16 0° 340° (NNW) 4,386 6.8 -12.8°
Reaches altitude 10° 05:09:06 10° 341° (NNW) 3,463 6.3 -12.1°
Maximum altitude 05:17:48 80° 67° (ENE) 1,456 4.5 -10.0°
Drops below altitude 10° 05:26:33 10° 153° (SSE) 3,478 6.6 -7.8°
Sets 05:29:24 0° 154° (SSE) 4,406 7.1 -7.1°
